This is the latest recevied weather packets stored in our database for station/object K7DC. If no packets are shown the sender has not sent any weather packets the latest 10 day(s).
| Time | Temp. | Humidity | Pressure | Rain* | Wind** | Luminosity | Snow |
|---|---|---|---|---|---|---|---|
| 1788043964 | 32.78° C | 39% | 1013.3 hPa | 0 mm | - | 24 W/m² | - |
| 1788043659 | 33.89° C | 36% | 1013.5 hPa | 0 mm | - | 26 W/m² | - |
| 1788043355 | 33.89° C | 34% | 1013.2 hPa | 0 mm | - | 28 W/m² | - |
| 1788043054 | 34.44° C | 33% | 1013.4 hPa | 0 mm | - | 31 W/m² | - |
| 1788042749 | 35.56° C | 33% | 1013.7 hPa | 0 mm | - | 39 W/m² | - |
| 1788042448 | 36.11° C | 31% | 1013.2 hPa | 0 mm | - | 53 W/m² | - |
| 1788042144 | 36.67° C | 30% | 1013 hPa | 0 mm | - | 86 W/m² | - |
| 1788041840 | 36.67° C | 28% | 1013 hPa | 0 mm | - | 108 W/m² | - |
| 1788041540 | 36.67° C | 27% | 1012.9 hPa | 0 mm | - | 98 W/m² | - |
| 1788041235 | 37.22° C | 28% | 1012.9 hPa | 0 mm | - | 91 W/m² | - |
| 1788040933 | 37.78° C | 27% | 1012.9 hPa | 0 mm | - | 88 W/m² | - |
| 1788040631 | 37.22° C | 27% | 1012.9 hPa | 0 mm | - | 89 W/m² | - |
| 1788040328 | 37.22° C | 28% | 1012.7 hPa | 0 mm | - | 94 W/m² | - |
| 1788040028 | 37.22° C | 28% | 1013.1 hPa | 0 mm | - | 100 W/m² | - |
| 1788039723 | 37.78° C | 28% | 1013.1 hPa | 0 mm | - | 104 W/m² | - |
| 1788039417 | 38.33° C | 27% | 1013.1 hPa | 0 mm | - | 110 W/m² | - |
| 1788039113 | 40° C | 25% | 1012.9 hPa | 0 mm | - | 117 W/m² | - |
| 1788038809 | 40.56° C | 23% | 1012.9 hPa | 0 mm | - | 122 W/m² | - |
| 1788038509 | 40.56° C | 22% | 1013 hPa | 0 mm | - | 127 W/m² | - |
| 1788038208 | 40.56° C | 22% | 1012.8 hPa | 0 mm | - | 121 W/m² | - |
| 1788037903 | 40.56° C | 22% | 1013 hPa | 0 mm | - | 116 W/m² | - |
| 1788037598 | 41.67° C | 22% | 1013 hPa | 0 mm | - | 118 W/m² | - |
| 1788037293 | 42.78° C | 20% | 1013.4 hPa | 0 mm | - | 139 W/m² | - |
| 1788036992 | 43.33° C | 20% | 1013.3 hPa | 0 mm | - | 168 W/m² | - |
| 1788036689 | 43.89° C | 20% | 1013.4 hPa | 0 mm | - | 243 W/m² | - |
* Rain latest hour (hover to see other rain measurements)
** Current wind speed in m/s (hover to see current wind gust speed)